TimePST,TemperatureF,Dew PointF,Humidity,Sea Level PressureIn,VisibilityMPH,Wind Direction,Wind SpeedMPH,Gust SpeedMPH,PrecipitationIn,Events,Conditions,WindDirDegrees,DateUTC
12:53 AM,45.0,32.0,60,30.06,10.0,South,25.3,32.2,N/A,,Mostly Cloudy,170,2012-11-19 08:53:00
1:53 AM,45.0,32.0,60,30.05,10.0,South,20.7,32.2,N/A,,Overcast,170,2012-11-19 09:53:00
2:53 AM,45.0,32.0,60,30.04,10.0,South,24.2,29.9,N/A,,Mostly Cloudy,170,2012-11-19 10:53:00
3:53 AM,46.0,32.0,58,30.02,10.0,South,23.0,32.2,N/A,,Mostly Cloudy,170,2012-11-19 11:53:00
4:53 AM,46.0,33.1,61,30.03,10.0,South,25.3,32.2,N/A,,Overcast,170,2012-11-19 12:53:00
5:53 AM,46.9,33.1,59,30.03,10.0,South,25.3,32.2,N/A,,Overcast,170,2012-11-19 13:53:00
6:53 AM,46.9,33.1,59,30.01,10.0,South,25.3,34.5,N/A,,Mostly Cloudy,170,2012-11-19 14:53:00
7:53 AM,48.0,33.1,56,30.03,10.0,South,27.6,32.2,N/A,,Overcast,170,2012-11-19 15:53:00
8:53 AM,48.9,35.1,59,30.03,10.0,South,23.0,33.4,0.00,,Overcast,170,2012-11-19 16:53:00
9:53 AM,50.0,34.0,54,30.04,10.0,South,27.6,33.4,N/A,,Overcast,170,2012-11-19 17:53:00
10:53 AM,53.1,35.1,50,30.01,10.0,South,24.2,34.5,N/A,,Partly Cloudy,170,2012-11-19 18:53:00
11:53 AM,52.0,35.1,53,29.99,10.0,South,34.5,41.4,N/A,,Overcast,170,2012-11-19 19:53:00
12:53 PM,54.0,36.0,51,29.96,10.0,South,32.2,42.6,0.00,,Scattered Clouds,170,2012-11-19 20:53:00
1:53 PM,53.1,35.1,50,29.94,10.0,South,32.2,43.7,N/A,,Partly Cloudy,170,2012-11-19 21:53:00
2:53 PM,52.0,36.0,54,29.92,10.0,SSE,38.0,46.0,N/A,,Clear,160,2012-11-19 22:53:00
3:53 PM,52.0,36.0,54,29.92,10.0,South,38.0,47.2,N/A,,Clear,170,2012-11-19 23:53:00
4:53 PM,51.1,37.0,59,29.93,10.0,South,32.2,42.6,N/A,,Clear,170,2012-11-20 00:53:00
5:53 PM,51.1,37.0,59,29.92,10.0,South,39.1,50.6,N/A,,Mostly Cloudy,170,2012-11-20 01:53:00
7:53 PM,53.1,39.0,59,29.91,10.0,South,36.8,44.9,N/A,,Overcast,170,2012-11-20 03:53:00
8:53 PM,53.1,39.0,59,29.91,10.0,SSE,34.5,49.5,N/A,,Overcast,160,2012-11-20 04:53:00
9:53 PM,53.1,39.9,61,29.92,10.0,South,27.6,42.6,N/A,,Overcast,170,2012-11-20 05:53:00
10:53 PM,53.1,39.0,59,29.90,10.0,South,36.8,48.3,N/A,,Overcast,170,2012-11-20 06:53:00
11:53 PM,52.0,39.0,61,29.91,10.0,South,34.5,46.0,N/A,,Partly Cloudy,170,2012-11-20 07:53:00